Zurück zum Katalog

OPS 4682 DEB

AktivPO
NORAD 1316·DEBRIS·🇺🇸 United States

Gestartet Apr 3, 1965 von Vandenberg Space Force Base

Loading…

Nächste Überflüge (nächste 24 Stunden)

TLE

AktuellSource: Space-Track

Epoche: Sep 14, 2026, 14:35 UTC

1 01316U 65027C   26257.60771169  .00000807  00000-0  19063-2 0  9996
2 01316  90.2673  29.7703 0032390 290.8318  68.9349 13.22635061930826

Verfolge OPS 4682 DEB in Echtzeit mit AllMySat

Download on the App Store